This is the latest recevied weather packets stored in our database for station/object KD2FKI. If no packets are shown the sender has not sent any weather packets the latest 10 day(s).
| Time | Temp. | Humidity | Pressure | Rain* | Wind** | Luminosity | Snow |
|---|---|---|---|---|---|---|---|
| 1787869536 | 28.89° C | 62% | - | 0 mm | - | - | - |
| 1787868933 | 28.89° C | 62% | - | 0 mm | - | - | - |
| 1787868331 | 29.44° C | 61% | - | 0 mm | - | - | - |
| 1787867729 | 29.44° C | 61% | - | 0 mm | - | - | - |
| 1787867130 | 30° C | 62% | - | 0 mm | - | - | - |
| 1787866523 | 30° C | 62% | - | 0 mm | - | - | - |
| 1787865921 | 30° C | 61% | - | 0 mm | - | - | - |
| 1787865319 | 30.56° C | 59% | - | 0 mm | - | - | - |
| 1787864736 | 31.11° C | 55% | - | 0 mm | - | - | - |
| 1787864133 | 31.67° C | 53% | - | 0 mm | - | - | - |
| 1787863530 | 32.22° C | 55% | - | 0 mm | - | - | - |
| 1787862928 | 32.22° C | 53% | - | 0 mm | - | - | - |
| 1787862326 | 32.22° C | 52% | - | 0 mm | - | - | - |
| 1787861724 | 32.22° C | 54% | - | 0 mm | - | - | - |
| 1787861123 | 32.78° C | 54% | - | 0 mm | - | - | - |
| 1787860521 | 32.78° C | 53% | - | 0 mm | - | - | - |
| 1787859937 | 32.22° C | 54% | - | 0 mm | - | - | - |
| 1787859335 | 32.78° C | 54% | - | 0 mm | - | - | - |
| 1787858730 | 32.78° C | 53% | - | 0 mm | - | - | - |
| 1787858129 | 33.89° C | 52% | - | 0 mm | - | - | - |
| 1787857526 | 34.44° C | 49% | - | 0 mm | - | - | - |
| 1787856924 | 35° C | 49% | - | 0 mm | - | - | - |
| 1787856324 | 35.56° C | 48% | - | 0 mm | - | - | - |
| 1787855721 | 36.11° C | 47% | - | 0 mm | - | - | - |
| 1787855135 | 36.11° C | 47% | - | 0 mm | - | - | - |
* Rain latest hour (hover to see other rain measurements)
** Current wind speed in m/s (hover to see current wind gust speed)